sat.trackr.live / text

‹ back to catalog

STARLINK-35485

NORAD 66251 · 2025-245T

PAYLOAD ACTIVE UNKNOWN

§ Identity

Operator
Country
US
Launch date
2025-10-29
Launch site
AFETR
Launch vehicle
Mass (kg)
RCS (m²)

Purposes: comms

External: N2YO · Heavens-Above · Gunter

§ Orbital elements

Epoch: 2026-09-19T19:58:04.373184Z

Period
94.01 min
Inclination
53.1584°
Eccentricity
0.0001015
Mean motion
15.31719299 rev/d
Perigee alt
470.0 km
Apogee alt
471.4 km
Semi-major
6,848.8 km
B*
5.6785e-4
RAAN
100.4853°
Arg perigee
89.8966°
Mean anomaly
270.2152°
Rev number
5,078

§ Raw data

STARLINK-354851 66251U 25245T   26262.83199506  .00017308  00000+0  56785-3 0  99992 66251  53.1584 100.4853 0001015  89.8966 270.2152 15.31719299 50788

JSON: /api/v1/satellites/66251 · /tle

For live sub-satellite position, see the globe view (requires WebGL).

§ Visibility from observer

Set your observer location to see the next 7 days of passes ≥ 10°. The values pass through the URL so the page stays shareable.

No JS? Fill the form by hand. The geolocation button needs JavaScript.